When you browse on this site, cookies collect data to enhance your experience and personalize the content and advertising you see.
Visit our Privacy Policy to learn more. By continuing to use the site, you agree to this use of cookies and data.
  • In United Kingdom
  • List of Countries
  • For 7 days
  • Water Temperature
  • Satellite Maps
  • Weather Map
  • Weather Widgets
  • user-avatar
    Login

    Hourly Weather Shapky

    Today, 25 June, Tuesday

    Time Temperature Precipitation Wind Pressure Humidity
    00:00 +22°C° 0.2 mm 5 mps 755 mmHg 86%
    01:00 +22°C° 0.2 mm 4 mps 756 mmHg 90%
    02:00 +21°C° 0 mm 4 mps 756 mmHg 88%
    03:00 +21°C° 0.3 mm 4 mps 756 mmHg 89%
    04:00 +21°C° 0.3 mm 5 mps 756 mmHg 91%
    05:00 +20°C° 0.3 mm 5 mps 757 mmHg 92%
    06:00 +21°C° 0.1 mm 6 mps 757 mmHg 87%
    07:00 +23°C° 0.1 mm 6 mps 757 mmHg 82%
    08:00 +24°C° 0 mm 6 mps 758 mmHg 76%
    09:00 +26°C° 0 mm 6 mps 758 mmHg 71%
    10:00 +27°C° 0 mm 6 mps 758 mmHg 67%
    11:00 +28°C° 0 mm 6 mps 758 mmHg 62%
    12:00 +29°C° 0 mm 7 mps 758 mmHg 60%
    13:00 +29°C° 0 mm 7 mps 758 mmHg 58%
    14:00 +29°C° 0 mm 7 mps 759 mmHg 55%
    15:00 +28°C° 0 mm 7 mps 759 mmHg 56%
    16:00 +28°C° 0 mm 7 mps 759 mmHg 57%
    17:00 +27°C° 0 mm 7 mps 758 mmHg 58%
    18:00 +24°C° 0 mm 6 mps 759 mmHg 61%
    19:00 +22°C° 0 mm 5 mps 760 mmHg 65%
    20:00 +21°C° 0 mm 4 mps 760 mmHg 68%
    21:00 +20°C° 0 mm 4 mps 760 mmHg 71%
    22:00 +19°C° 0 mm 4 mps 760 mmHg 74%
    23:00 +18°C° 0 mm 3 mps 760 mmHg 77%

    Tomorrow, 26 June, Wednesday

    Time Temperature Precipitation Wind Pressure Humidity
    00:00 +17°C° 0 mm 3 mps 761 mmHg 78%
    01:00 +17°C° 0 mm 3 mps 761 mmHg 79%
    02:00 +16°C° 0 mm 3 mps 762 mmHg 80%
    03:00 +16°C° 0 mm 3 mps 761 mmHg 80%
    04:00 +16°C° 0 mm 3 mps 761 mmHg 80%
    05:00 +16°C° 0 mm 3 mps 761 mmHg 80%
    06:00 +18°C° 0 mm 3 mps 761 mmHg 73%
    07:00 +20°C° 0 mm 3 mps 761 mmHg 66%
    08:00 +22°C° 0 mm 3 mps 761 mmHg 59%
    09:00 +24°C° 0 mm 3 mps 761 mmHg 55%
    10:00 +25°C° 0 mm 3 mps 761 mmHg 51%
    11:00 +26°C° 0 mm 4 mps 761 mmHg 48%
    12:00 +26°C° 0 mm 4 mps 761 mmHg 46%
    13:00 +27°C° 0 mm 3 mps 760 mmHg 45%
    14:00 +27°C° 0 mm 3 mps 760 mmHg 43%
    15:00 +27°C° 0 mm 3 mps 760 mmHg 45%
    16:00 +27°C° 0 mm 3 mps 759 mmHg 46%
    17:00 +26°C° 0 mm 2 mps 759 mmHg 48%
    18:00 +24°C° 0 mm 2 mps 758 mmHg 53%
    19:00 +21°C° 0 mm 2 mps 758 mmHg 59%
    20:00 +21°C° 0 mm 1 mps 758 mmHg 64%
    21:00 +20°C° 0 mm 1 mps 758 mmHg 64%
    22:00 +19°C° 0 mm 1 mps 758 mmHg 65%
    23:00 +19°C° 0 mm 1 mps 757 mmHg 65%

    Day after tomorrow, 27 June, Thursday

    Time Temperature Precipitation Wind Pressure Humidity
    00:00 +18°C° 0 mm 1 mps 757 mmHg 66%
    01:00 +18°C° 0 mm 1 mps 757 mmHg 68%
    02:00 +16°C° 0 mm 1 mps 756 mmHg 69%
    03:00 +17°C° 0 mm 2 mps 756 mmHg 71%
    04:00 +17°C° 0 mm 2 mps 755 mmHg 72%
    05:00 +17°C° 0 mm 2 mps 755 mmHg 74%
    06:00 +19°C° 0 mm 3 mps 754 mmHg 69%
    07:00 +21°C° 0 mm 3 mps 754 mmHg 64%
    08:00 +23°C° 0 mm 4 mps 753 mmHg 59%
    09:00 +25°C° 0 mm 4 mps 753 mmHg 56%
    10:00 +26°C° 0 mm 5 mps 752 mmHg 54%
    11:00 +27°C° 0 mm 5 mps 751 mmHg 51%
    12:00 +28°C° 0 mm 6 mps 750 mmHg 50%
    13:00 +29°C° 0 mm 6 mps 749 mmHg 49%
    14:00 +29°C° 0 mm 6 mps 749 mmHg 48%
    15:00 +29°C° 0 mm 6 mps 748 mmHg 51%
    16:00 +29°C° 0 mm 6 mps 747 mmHg 53%
    17:00 +29°C° 0 mm 5 mps 746 mmHg 56%
    18:00 +27°C° 0.7 mm 5 mps 745 mmHg 65%
    19:00 +25°C° 0.7 mm 4 mps 745 mmHg 75%
    20:00 +22°C° 0.7 mm 4 mps 744 mmHg 85%
    21:00 +22°C° 0.4 mm 4 mps 744 mmHg 87%
    22:00 +21°C° 0.4 mm 5 mps 744 mmHg 89%
    23:00 +21°C° 0.4 mm 5 mps 743 mmHg 91%

    28 June, Friday

    Time Temperature Precipitation Wind Pressure Humidity
    00:00 +20°C° 0 mm 5 mps 743 mmHg 92%
    01:00 +19°C° 0 mm 5 mps 743 mmHg 93%
    02:00 +17°C° 0 mm 5 mps 743 mmHg 94%
    03:00 +16°C° 0 mm 6 mps 743 mmHg 92%
    04:00 +16°C° 0 mm 6 mps 743 mmHg 90%
    05:00 +15°C° 0 mm 6 mps 744 mmHg 88%
    06:00 +16°C° 0 mm 6 mps 744 mmHg 83%
    07:00 +17°C° 0 mm 6 mps 744 mmHg 77%
    08:00 +19°C° 0 mm 6 mps 744 mmHg 71%
    09:00 +20°C° 0.1 mm 7 mps 744 mmHg 67%
    10:00 +21°C° 0.1 mm 7 mps 744 mmHg 62%
    11:00 +22°C° 0.1 mm 8 mps 744 mmHg 58%
    12:00 +22°C° 0.2 mm 8 mps 744 mmHg 57%
    13:00 +22°C° 0.2 mm 8 mps 744 mmHg 57%
    14:00 +22°C° 0.2 mm 8 mps 744 mmHg 56%
    15:00 +21°C° 0.3 mm 7 mps 744 mmHg 59%
    16:00 +20°C° 0.3 mm 7 mps 744 mmHg 63%
    17:00 +18°C° 0.3 mm 7 mps 745 mmHg 67%
    18:00 +17°C° 0 mm 6 mps 745 mmHg 71%
    19:00 +16°C° 0 mm 5 mps 745 mmHg 75%
    20:00 +15°C° 0 mm 4 mps 745 mmHg 79%
    21:00 +14°C° 0 mm 4 mps 745 mmHg 80%
    22:00 +14°C° 0 mm 4 mps 745 mmHg 81%
    23:00 +14°C° 0 mm 5 mps 746 mmHg 83%

    29 June, Saturday

    Time Temperature Precipitation Wind Pressure Humidity
    00:00 +13°C° 0 mm 5 mps 745 mmHg 83%
    01:00 +13°C° 0 mm 5 mps 745 mmHg 84%
    02:00 +13°C° 0 mm 5 mps 745 mmHg 85%
    03:00 +12°C° 0 mm 5 mps 746 mmHg 85%
    04:00 +12°C° 0 mm 5 mps 746 mmHg 86%
    05:00 +12°C° 0 mm 5 mps 746 mmHg 86%
    06:00 +13°C° 0 mm 6 mps 746 mmHg 81%
    07:00 +14°C° 0 mm 6 mps 746 mmHg 76%
    08:00 +15°C° 0 mm 6 mps 747 mmHg 70%
    09:00 +16°C° 0.1 mm 7 mps 747 mmHg 64%
    10:00 +17°C° 0.1 mm 7 mps 747 mmHg 57%
    11:00 +18°C° 0.1 mm 8 mps 747 mmHg 51%
    12:00 +18°C° 0.1 mm 8 mps 748 mmHg 51%
    13:00 +18°C° 0.1 mm 8 mps 748 mmHg 52%
    14:00 +18°C° 0.1 mm 8 mps 748 mmHg 52%
    15:00 +17°C° 0.1 mm 7 mps 748 mmHg 54%
    16:00 +17°C° 0.1 mm 7 mps 748 mmHg 55%
    17:00 +17°C° 0.1 mm 6 mps 748 mmHg 56%
    18:00 +15°C° 0 mm 5 mps 749 mmHg 62%
    19:00 +14°C° 0 mm 4 mps 749 mmHg 67%
    20:00 +12°C° 0 mm 3 mps 749 mmHg 73%
    21:00 +12°C° 0 mm 3 mps 749 mmHg 75%
    22:00 +11°C° 0 mm 3 mps 750 mmHg 77%
    23:00 +10°C° 0 mm 3 mps 750 mmHg 80%

    30 June, Sunday

    Time Temperature Precipitation Wind Pressure Humidity
    00:00 +10°C° 0 mm 3 mps 750 mmHg 81%
    01:00 +10°C° 0 mm 3 mps 750 mmHg 82%
    02:00 +9°C° 0 mm 3 mps 750 mmHg 83%
    03:00 +9°C° 0 mm 3 mps 750 mmHg 83%
    04:00 +9°C° 0 mm 3 mps 750 mmHg 82%
    05:00 +10°C° 0 mm 3 mps 750 mmHg 82%
    06:00 +12°C° 0 mm 3 mps 750 mmHg 73%
    07:00 +14°C° 0 mm 4 mps 750 mmHg 64%
    08:00 +17°C° 0 mm 4 mps 750 mmHg 56%
    09:00 +18°C° 0 mm 4 mps 751 mmHg 51%
    10:00 +19°C° 0 mm 4 mps 751 mmHg 46%
    11:00 +21°C° 0 mm 5 mps 751 mmHg 41%
    12:00 +21°C° 0 mm 4 mps 751 mmHg 40%
    13:00 +21°C° 0 mm 4 mps 751 mmHg 40%
    14:00 +21°C° 0 mm 3 mps 751 mmHg 40%
    15:00 +21°C° 0 mm 4 mps 751 mmHg 44%
    16:00 +20°C° 0 mm 4 mps 751 mmHg 49%
    17:00 +20°C° 0 mm 5 mps 751 mmHg 53%
    18:00 +19°C° 0 mm 4 mps 751 mmHg 61%
    19:00 +17°C° 0 mm 3 mps 751 mmHg 68%
    20:00 +16°C° 0 mm 2 mps 751 mmHg 75%
    21:00 +15°C° 0 mm 2 mps 751 mmHg 78%
    22:00 +14°C° 0 mm 2 mps 752 mmHg 82%
    23:00 +14°C° 0 mm 2 mps 752 mmHg 85%
    Show more